Sacramento, CA

10:25 AM PDT on July 22, 2017 (GMT -0700)
Sacramento Executive

Weather History for KSAC - November, 2012

Change the Weather History Date:

Monday, November 26, 2012

  Actual Average Record
Temperature  
Mean Temperature 51 °F -  
Max Temperature 64 °F 59 °F 73 °F (1959)
Min Temperature 38 °F 40 °F 29 °F (1993)
Degree Days  
Heating Degree Days 14    
Cooling Degree Days 0    
Growing Degree Days 2 (Base 50)    
Moisture  
Dew Point 42 °F    
Average Humidity 85    
Maximum Humidity 93    
Minimum Humidity 56    
Precipitation  
Precipitation 0.00 in 0.08 in 1.52 in (1997)
Month to date precipitation 1.59 1.73  
Year to date precipitation 12.62 14.92  
Since 1 July precipitation 2.76  
Sea Level Pressure  
Sea Level Pressure 30.03 in    
Wind  
Wind Speed 0 mph (NNW)    
Max Wind Speed 8 mph    
Max Gust Speed 10 mph    
Visibility 5 miles    
Events Fog    
T = Trace of Precipitation, MM = Missing Value Source: NWS Daily Summary

Daily Weather History Graph

Daily Weather History Graph

Search for Another Location

Airport or City:

Trip Planner

Search our weather history database for the weather conditions in past years. The results will help you decide how hot, cold, wet, or windy it might be!

Date:

Astronomy

Nov. 26, 2012 Rise Set
Actual Time 7:00 AM PST 4:46 PM PST
Civil Twilight 6:31 AM PST 5:15 PM PST
Nautical Twilight 5:58 AM PST 5:48 PM PST
Astronomical Twilight 5:26 AM PST 6:20 PM PST
Moon 3:41 PM PST (11/26) 5:15 AM PST (11/26)
Length of Visible Light 10h 44m
Length of Day
9h 46m
Waxing Gibbous, 97% of the Moon is Illuminated
Nov 26
Waxing Gibbous
Nov 28
Full
Dec 6
Last Quarter
Dec 13
New
Dec 19
First Quarter

Hourly Weather History & Observations

Time (PST) Temp. Dew Point Humidity Pressure Visibility Wind Dir Wind Speed Gust Speed Precip Events Conditions
12:01 AM 44.6 °F 41.0 °F 87% 29.98 in 0.8 mi Calm Calm - N/A   Clear
12:05 AM 44.6 °F 41.0 °F 87% 29.98 in 2.0 mi Calm Calm - N/A   Clear
12:13 AM 42.8 °F 41.0 °F 93% 29.98 in 5.0 mi Calm Calm - N/A   Clear
12:24 AM 42.8 °F 41.0 °F 93% 29.98 in 1.8 mi Calm Calm - N/A   Clear
12:34 AM 44.6 °F 41.0 °F 87% 29.98 in 3.0 mi Calm Calm - N/A   Clear
12:53 AM 44.1 °F 41.0 °F 89% 29.99 in 5.0 mi Calm Calm - N/A   Clear
1:48 AM 42.8 °F 39.2 °F 87% 29.99 in 1.8 mi Calm Calm - N/A   Clear
1:53 AM 42.1 °F 39.9 °F 92% 29.99 in 1.0 mi Calm Calm - N/A   Clear
2:15 AM 42.8 °F 39.2 °F 87% 30.00 in 0.8 mi Calm Calm - N/A   Clear
2:23 AM 42.8 °F 39.2 °F 87% 30.00 in 2.0 mi Calm Calm - N/A   Clear
2:39 AM 42.8 °F 39.2 °F 87% 30.00 in 3.0 mi Calm Calm - N/A   Clear
2:53 AM 42.1 °F 39.0 °F 89% 30.01 in 5.0 mi Calm Calm - N/A   Clear
3:08 AM 41.0 °F 37.4 °F 87% 30.01 in 1.5 mi Calm Calm - N/A   Clear
3:17 AM 41.0 °F 39.2 °F 93% 30.01 in 0.8 mi Calm Calm - N/A   Clear
3:21 AM 41.0 °F 39.2 °F 93% 30.01 in 2.0 mi Calm Calm - N/A   Clear
3:34 AM 41.0 °F 37.4 °F 87% 30.01 in 1.8 mi Calm Calm - N/A   Clear
3:53 AM 41.0 °F 37.9 °F 89% 30.01 in 0.2 mi Calm Calm - N/A Fog Fog
4:14 AM 39.2 °F 37.4 °F 93% 30.01 in 1.0 mi Calm Calm - N/A   Clear
4:18 AM 39.2 °F 37.4 °F 93% 30.02 in 3.0 mi Calm Calm - N/A   Clear
4:53 AM 39.9 °F 37.0 °F 89% 30.02 in 3.0 mi Calm Calm - N/A   Clear
5:05 AM 39.2 °F 37.4 °F 93% 30.02 in 2.5 mi Calm Calm - N/A   Clear
5:14 AM 39.2 °F 37.4 °F 93% 30.02 in 1.5 mi Calm Calm - N/A   Clear
5:38 AM 39.2 °F 37.4 °F 93% 30.03 in 3.0 mi Calm Calm - N/A   Clear
5:53 AM 39.9 °F 37.0 °F 89% 30.03 in 9.0 mi Calm Calm - N/A   Clear
6:53 AM 39.0 °F 37.0 °F 93% 30.04 in 9.0 mi Calm Calm - N/A   Clear
7:53 AM 41.0 °F 39.0 °F 93% 30.06 in 7.0 mi Calm Calm - N/A   Clear
8:53 AM 48.9 °F 43.0 °F 80% 30.08 in 10.0 mi Calm Calm - N/A   Clear
9:53 AM 53.1 °F 46.0 °F 77% 30.08 in 10.0 mi Calm Calm - N/A   Clear
10:53 AM 55.9 °F 48.0 °F 75% 30.08 in 9.0 mi Calm Calm - N/A   Clear
11:53 AM 60.1 °F 48.9 °F 67% 30.06 in 9.0 mi Calm Calm - N/A   Clear
12:53 PM 63.0 °F 48.9 °F 60% 30.04 in 10.0 mi Variable 3.5 mph - N/A   Clear
1:53 PM 64.0 °F 48.9 °F 58% 30.02 in 10.0 mi Variable 5.8 mph - N/A   Clear
2:53 PM 64.0 °F 48.0 °F 56% 30.02 in 10.0 mi NW 4.6 mph - N/A   Clear
3:53 PM 62.1 °F 48.0 °F 60% 30.02 in 10.0 mi North 4.6 mph - N/A   Clear
4:53 PM 57.0 °F 48.0 °F 72% 30.02 in 10.0 mi Calm Calm - N/A   Clear
5:53 PM 53.1 °F 46.9 °F 80% 30.03 in 10.0 mi Calm Calm - N/A   Clear
6:53 PM 50.0 °F 46.0 °F 86% 30.04 in 10.0 mi Calm Calm - N/A   Clear
7:53 PM 48.9 °F 46.0 °F 90% 30.05 in 7.0 mi Calm Calm - N/A   Clear
8:53 PM 46.9 °F 45.0 °F 93% 30.06 in 3.0 mi Calm Calm - N/A   Clear
9:53 PM 48.9 °F 45.0 °F 86% 30.07 in 6.0 mi Calm Calm - N/A   Clear
10:53 PM 48.0 °F 45.0 °F 89% 30.07 in 3.0 mi Calm Calm - N/A   Clear
10:57 PM 46.4 °F 44.6 °F 93% 30.07 in 1.8 mi Calm Calm - N/A   Clear
11:29 PM 46.4 °F 44.6 °F 93% 30.08 in 0.5 mi Calm Calm - N/A Fog Fog
11:36 PM 46.4 °F 44.6 °F 93% 30.08 in 0.2 mi Calm Calm - N/A Fog Fog
11:53 PM 45.0 °F 43.0 °F 93% 30.08 in 0.2 mi Calm Calm - N/A Fog Fog